Weather History for Lamoni, IA

Change the Weather History Date:

Thursday, September 4, 2014

  Actual Average Record
Temperature  
Mean Temperature 82 °F 70 °F  
Max Temperature 90 °F 80 °F 95 °F (1990)
Min Temperature 73 °F 59 °F 47 °F (2010)
Degree Days  
Heating Degree Days 0 1  
Month to date heating degree days 0 4  
Since 1 July heating degree days 7 12  
Cooling Degree Days 17 6  
Month to date cooling degree days 37 24  
Year to date cooling degree days 854 862  
Growing Degree Days 31 (Base 50)    
Moisture  
Dew Point 71 °F    
Average Humidity 75    
Maximum Humidity 93    
Minimum Humidity 56    
Precipitation  
Precipitation 0.00 in 0.17 in 3.38 in (1971)
Month to date precipitation 0.01 0.63  
Sea Level Pressure  
Sea Level Pressure 29.83 in    
Wind  
Wind Speed 13 mph (South)    
Max Wind Speed 24 mph    
Max Gust Speed 33 mph    
Visibility 10 miles    
Events      
T = Trace of Precipitation, MM = Missing Value Source: NWS Daily Summary

Daily Weather History Graph

Daily Weather History Graph

Search for Another Location

Airport:

Trip Planner

Search our weather history database for the weather conditions in past years. The results will help you decide how hot, cold, wet, or windy it might be!

Date:

Astronomy

Sep. 04, 2014 Rise Set
Actual Time 6:45 AM CDT 7:42 PM CDT
Civil Twilight 6:17 AM CDT 8:10 PM CDT
Nautical Twilight 5:44 AM CDT 8:43 PM CDT
Astronomical Twilight 5:09 AM CDT 9:18 PM CDT
Moon 4:22 PM CDT (9/4) 1:36 AM CDT (9/4)
Length of Visible Light 13h 52m
Length of Day
12h 57m
Waxing Gibbous, 74% of the Moon is Illuminated
Sep 4
Waxing Gibbous
Sep 8
Full
Sep 15
Last Quarter
Sep 24
New
Oct 1
First Quarter

Hourly Weather History & Observations

Time (CDT) Temp. Heat Index Dew Point Humidity Pressure Visibility Wind Dir Wind Speed Gust Speed Precip Events Conditions
12:53 AM 75.0 °F - 72.0 °F 90% 29.81 in 10.0 mi South 10.4 mph - N/A   Clear
1:53 AM 75.0 °F - 72.0 °F 90% 29.80 in 10.0 mi South 10.4 mph - N/A   Clear
2:53 AM 75.0 °F - 72.0 °F 90% 29.79 in 10.0 mi South 10.4 mph - N/A   Clear
3:53 AM 75.0 °F - 72.0 °F 90% 29.79 in 10.0 mi South 11.5 mph - N/A   Clear
4:53 AM 73.9 °F - 71.1 °F 91% 29.79 in 10.0 mi South 11.5 mph - N/A   Clear
5:53 AM 73.9 °F - 71.1 °F 91% 29.79 in 10.0 mi South 11.5 mph - N/A   Clear
6:53 AM 73.0 °F - 71.1 °F 93% 29.81 in 10.0 mi South 11.5 mph - N/A   Clear
7:53 AM 75.0 °F - 70.0 °F 84% 29.81 in 10.0 mi South 11.5 mph - N/A   Clear
8:53 AM 78.1 °F - 71.1 °F 79% 29.82 in 10.0 mi South 11.5 mph 20.7 mph N/A   Clear
9:53 AM 81.0 °F 84.9 °F 71.1 °F 72% 29.83 in 9.0 mi SSW 13.8 mph 24.2 mph N/A   Clear
10:53 AM 82.9 °F 88.0 °F 72.0 °F 69% 29.82 in 10.0 mi SSW 20.7 mph 27.6 mph N/A   Clear
11:53 AM 84.9 °F 90.7 °F 72.0 °F 65% 29.82 in 10.0 mi SW 17.3 mph 31.1 mph N/A   Clear
12:53 PM 88.0 °F 95.6 °F 73.0 °F 61% 29.83 in 10.0 mi SSW 13.8 mph 27.6 mph N/A   Clear
1:53 PM 89.1 °F 96.0 °F 72.0 °F 57% 29.82 in 10.0 mi SSW 21.9 mph 26.5 mph N/A   Clear
2:53 PM 89.1 °F 95.0 °F 71.1 °F 55% 29.81 in 10.0 mi SSW 18.4 mph 27.6 mph N/A   Clear
3:53 PM 89.1 °F 95.0 °F 71.1 °F 55% 29.80 in 10.0 mi South 15.0 mph 26.5 mph N/A   Clear
4:53 PM 89.1 °F 95.0 °F 71.1 °F 55% 29.80 in 10.0 mi South 16.1 mph 23.0 mph N/A   Clear
5:53 PM 88.0 °F 93.8 °F 71.1 °F 57% 29.82 in 10.0 mi South 13.8 mph - N/A   Clear
6:53 PM 84.9 °F 90.1 °F 71.1 °F 63% 29.84 in 10.0 mi South 8.1 mph - N/A   Clear
7:53 PM 82.0 °F 87.4 °F 73.0 °F 74% 29.85 in 10.0 mi South 9.2 mph - N/A   Clear
8:53 PM 81.0 °F 84.9 °F 71.1 °F 72% 29.86 in 10.0 mi South 10.4 mph - N/A   Clear
9:53 PM 79.0 °F - 71.1 °F 77% 29.89 in 10.0 mi South 12.7 mph - N/A   Clear
10:53 PM 79.0 °F - 70.0 °F 74% 29.90 in 10.0 mi South 12.7 mph - N/A   Mostly Cloudy
11:53 PM 78.1 °F - 70.0 °F 76% 29.90 in 10.0 mi South 10.4 mph - N/A   Mostly Cloudy